DW3795 Weather Reports


Display with metric or nautical units.
time (UTC)temp
F
wind
direction
speed
MPH
gust
MPH
rain 1hr
in
rain 24hr
in
rain mn
in
humidity
%
barometer
mb
20200404221836 70 117 5.0 8.0 0.00 0.00 0.00 33 1013.6
20200404221540 70 115 3.0 8.0 0.00 0.00 0.00 33 1013.4
20200404220331 71 114 3.0 9.0 0.00 0.00 0.00 31 1013.6
20200404220038 70 127 3.0 9.0 0.00 0.00 0.00 30 1013.5
20200404214831 71 85 3.0 9.0 0.00 0.00 0.00 33 1013.5
20200404214552 71 111 5.0 9.0 0.00 0.00 0.00 32 1013.4
20200404213326 72 59 1.0 4.0 0.00 0.00 0.00 30 1013.3
20200404213135 71 141 1.0 3.0 0.00 0.00 0.00 29 1013.3
20200404211826 72 111 1.0 4.0 0.00 0.00 0.00 26 1013.5
20200404211531 72 127 1.0 4.0 0.00 0.00 0.00 29 1013.4
20200404210321 73 325 1.0 8.0 0.00 0.00 0.00 31 1013.5
20200404210054 72 122 0.0 8.0 0.00 0.00 0.00 29 1013.5
20200404204821 73 114 2.0 4.0 0.00 0.00 0.00 28 1013.6
20200404204603 73 108 1.0 4.0 0.00 0.00 0.00 28 1013.6
20200404203336 72 117 2.0 7.0 0.00 0.00 0.00 29 1013.5
20200404203042 72 121 2.0 6.0 0.00 0.00 0.00 29 1013.6
20200404201832 73 354 2.0 4.0 0.00 0.00 0.00 30 1013.7
20200404201643 72 319 1.0 4.0 0.00 0.00 0.00 28 1013.7
20200404200331 73 47 1.0 6.0 0.00 0.00 0.00 33 1013.8
20200404200105 73 344 1.0 6.0 0.00 0.00 0.00 33 1013.7
20200404194827 72 348 3.0 9.0 0.00 0.00 0.00 31 1014.0
20200404194537 71 136 2.0 9.0 0.00 0.00 0.00 31 1013.9
20200404193326 72 44 1.0 6.0 0.00 0.00 0.00 35 1014.2
20200404193031 71 352 2.0 6.0 0.00 0.00 0.00 27 1014.1
20200404191823 71 26 1.0 5.0 0.00 0.00 0.00 34 1014.5
20200404191525 70 115 1.0 7.0 0.00 0.00 0.00 30 1014.5
20200404190321 72 96 3.0 7.0 0.00 0.00 0.00 31 1014.8
20200404190141 71 92 1.0 10.0 0.00 0.00 0.00 32 1014.8
20200404184838 72 65 2.0 9.0 0.00 0.00 0.00 31 1015.2
20200404184555 71 331 5.0 9.0 0.00 0.00 0.00 32 1015.1
20200404183336 71 335 1.0 9.0 0.00 0.00 0.00 30 1015.5
20200404183100 71 330 3.0 9.0 0.00 0.00 0.00 35 1015.5
20200404181832 70 15 4.0 9.0 0.00 0.00 0.00 32 1015.7
20200404181549 70 335 4.0 9.0 0.00 0.00 0.00 32 1015.7
20200404180327 71 321 3.0 10.0 0.00 0.00 0.00 31 1015.8
20200404180056 70 339 5.0 10.0 0.00 0.00 0.00 32 1015.8
20200404174827 70 48 3.0 9.0 0.00 0.00 0.00 36 1016.0
20200404174538 69 52 3.0 9.0 0.00 0.00 0.00 38 1015.9
20200404173323 69 24 4.0 9.0 0.00 0.00 0.00 35 1016.0
20200404173116 68 302 2.0 10.0 0.00 0.00 0.00 36 1016.1
20200404171822 68 339 2.0 10.0 0.00 0.00 0.00 38 1016.2
20200404171605 68 292 5.0 10.0 0.00 0.00 0.00 37 1016.2
20200404170339 68 70 3.0 9.0 0.00 0.00 0.00 37 1016.4
20200404170043 68 42 3.0 9.0 0.00 0.00 0.00 35 1016.4
20200404164837 68 304 5.0 8.0 0.00 0.00 0.00 36 1016.6
20200404164626 67 358 4.0 8.0 0.00 0.00 0.00 37 1016.5
20200404163333 66 334 4.0 6.0 0.00 0.00 0.00 36 1016.8
20200404163102 65 236 1.0 6.0 0.00 0.00 0.00 36 1016.8
20200404161831 66 27 2.0 5.0 0.00 0.00 0.00 36 1017.0
20200404161548 65 122 0.0 5.0 0.00 0.00 0.00 35 1016.9
20200404160327 64 75 2.0 5.0 0.00 0.00 0.00 45 1017.0
20200404160039 64 27 2.0 7.0 0.00 0.00 0.00 38 1017.0
20200404154826 63 111 1.0 7.0 0.00 0.00 0.00 42 1017.2
20200404154540 62 110 3.0 7.0 0.00 0.00 0.00 42 1017.1
20200404153322 62 201 3.0 6.0 0.00 0.00 0.00 45 1017.4
20200404153101 62 327 2.0 6.0 0.00 0.00 0.00 46 1017.3
20200404151837 61 224 3.0 6.0 0.00 0.00 0.00 47 1017.4
20200404151644 60 203 1.0 4.0 0.00 0.00 0.00 48 1017.4
20200404150337 60 337 1.0 4.0 0.00 0.00 0.00 47 1017.5
20200404150116 59 10 2.0 4.0 0.00 0.00 0.00 50 1017.6
20200404144832 60 79 1.0 3.0 0.00 0.00 0.00 52 1017.6
20200404144550 59 63 0.0 3.0 0.00 0.00 0.00 53 1017.6
20200404143332 57 216 1.0 5.0 0.00 0.00 0.00 56 1017.6
20200404143110 56 238 1.0 6.0 0.00 0.00 0.00 56 1017.5
20200404141826 57 121 2.0 4.0 0.00 0.00 0.00 56 1017.4
20200404141602 57 129 1.0 4.0 0.00 0.00 0.00 56 1017.4
20200404140326 56 120 1.0 4.0 0.00 0.00 0.00 57 1017.3
20200404140048 55 131 1.0 4.0 0.00 0.00 0.00 57 1017.5
20200404134821 55 108 4.0 5.0 0.00 0.00 0.00 58 1017.2
20200404134553 54 113 2.0 6.0 0.00 0.00 0.00 59 1017.3
20200404133321 54 42 2.0 4.0 0.00 0.00 0.00 59 1017.2
20200404133141 54 28 1.0 4.0 0.00 0.00 0.00 59 1017.1
20200404131836 54 41 1.0 5.0 0.00 0.00 0.00 60 1017.2
20200404131542 53 77 1.0 4.0 0.00 0.00 0.00 61 1017.1
20200404130332 53 102 2.0 4.0 0.00 0.00 0.00 61 1017.0
20200404130100 52 108 2.0 4.0 0.00 0.00 0.00 61 1017.0
20200404124831 51 50 1.0 2.0 0.00 0.00 0.00 61 1016.8
20200404124534 50 52 0.0 2.0 0.00 0.00 0.00 62 1016.8
20200404123327 49 25 1.0 2.0 0.00 0.00 0.00 61 1016.7
20200404123035 49 25 0.0 2.0 0.00 0.00 0.00 61 1016.7
20200404121825 48 26 0.0 2.0 0.00 0.00 0.00 64 1016.6
20200404121554 47 23 0.0 2.0 0.00 0.00 0.00 64 1016.6
20200404120321 46 54 0.0 1.0 0.00 0.00 0.00 67 1016.3
20200404120108 45 54 0.0 0.0 0.00 0.00 0.00 67 1016.3
20200404114821 45 54 0.0 3.0 0.00 0.00 0.00 67 1016.0
20200404114602 43 54 0.0 3.0 0.00 0.00 0.00 68 1016.0
20200404113337 43 78 1.0 2.0 0.00 0.00 0.00 72 1015.6
20200404113048 42 77 0.0 2.0 0.00 0.00 0.00 73 1015.5
20200404111836 42 72 0.0 1.0 0.00 0.00 0.00 73 1015.3
20200404111613 41 72 0.0 2.0 0.00 0.00 0.00 73 1015.2
20200404110332 40 72 0.0 1.0 0.00 0.00 0.00 76 1015.1
20200404110150 40 72 0.0 1.0 0.00 0.00 0.00 78 1015.1
20200404104831 39 72 0.0 1.0 0.00 0.00 0.00 81 1015.0
20200404104651 38 72 0.0 1.0 0.00 0.00 0.00 82 1014.9
20200404103327 39 72 1.0 1.0 0.00 0.00 0.00 80 1014.8
20200404103103 38 72 0.0 1.0 0.00 0.00 0.00 81 1014.8
20200404101822 39 72 0.0 2.0 0.00 0.00 0.00 79 1014.6
20200404101641 38 72 1.0 2.0 0.00 0.00 0.00 80 1014.7
20200404100323 38 98 2.0 7.0 0.00 0.00 0.00 85 1014.5
20200404100229 37 112 3.0 7.0 0.00 0.00 0.00 86 1014.5
20200404094838 38 291 0.0 1.0 0.00 0.00 0.00 85 1014.1
20200404094641 37 291 0.0 1.0 0.00 0.00 0.00 85 1014.1
20200404093338 37 291 0.0 0.0 0.00 0.00 0.00 84 1014.1
20200404093100 37 291 0.0 0.0 0.00 0.00 0.00 84 1014.0
20200404091833 38 291 0.0 0.0 0.00 0.00 0.00 82 1014.0
20200404091644 37 291 0.0 0.0 0.00 0.00 0.00 82 1014.0
20200404090333 38 291 0.0 1.0 0.00 0.00 0.00 82 1014.1
20200404090129 38 291 0.0 0.0 0.00 0.00 0.00 82 1014.0
20200404084828 39 291 1.0 3.0 0.00 0.00 0.00 82 1014.1
20200404084555 39 291 1.0 3.0 0.00 0.00 0.00 82 1014.1
20200404083327 39 314 0.0 0.0 0.00 0.00 0.00 78 1014.1
20200404083044 39 314 0.0 0.0 0.00 0.00 0.00 78 1014.0
20200404081822 39 314 0.0 0.0 0.00 0.00 0.00 78 1014.0
20200404081536 39 314 0.0 0.0 0.00 0.00 0.00 78 1014.5
20200404080322 39 314 0.0 0.0 0.00 0.00 0.00 77 1013.8
20200404080213 39 314 0.0 0.0 0.00 0.00 0.00 77 1013.7
20200404074837 39 314 0.0 1.0 0.00 0.00 0.00 77 1013.8
20200404074619 39 314 0.0 1.0 0.00 0.00 0.00 77 1013.8
20200404073332 40 314 0.0 1.0 0.00 0.00 0.00 76 1013.8
20200404073057 40 314 0.0 2.0 0.00 0.00 0.00 76 1013.7
20200404071832 41 314 0.0 0.0 0.00 0.00 0.00 71 1013.8
20200404071534 41 314 0.0 0.0 0.00 0.00 0.00 69 1013.7
20200404070328 41 314 0.0 0.0 0.00 0.00 0.00 71 1013.9
20200404070104 41 314 0.0 0.0 0.00 0.00 0.00 71 1013.8
20200404064827 42 314 0.0 0.0 0.00 0.00 0.00 72 1014.0
20200404064644 42 314 0.0 0.0 0.00 0.00 0.00 70 1014.0
20200404063323 43 314 0.0 0.0 0.00 0.00 0.00 69 1014.1
20200404063101 42 314 0.0 0.0 0.00 0.00 0.00 66 1014.0
20200404061822 43 314 0.0 0.0 0.00 0.00 0.00 66 1014.1
20200404061546 43 314 0.0 0.0 0.00 0.00 0.00 66 1014.0
20200404060338 43 314 0.0 0.0 0.00 0.00 0.00 65 1014.2
20200404060203 43 314 0.0 0.0 0.00 0.00 0.00 62 1014.2
20200404054837 44 314 0.0 0.0 0.00 0.00 0.00 63 1014.2
20200404054545 43 314 0.0 0.0 0.00 0.00 0.00 62 1014.1
20200404053334 44 314 0.0 0.0 0.00 0.00 0.00 62 1014.1
20200404053104 44 314 0.0 0.0 0.00 0.00 0.00 66 1014.1
20200404051827 45 314 0.0 0.0 0.00 0.00 0.00 66 1014.1
20200404051628 44 314 0.0 0.0 0.00 0.00 0.00 68 1014.0
20200404050327 46 314 0.0 0.0 0.00 0.00 0.00 66 1014.1
20200404050040 45 314 0.0 0.0 0.00 0.00 0.00 65 1014.0
20200404044822 45 314 1.0 1.0 0.00 0.00 0.00 58 1014.1
20200404044533 45 314 0.0 1.0 0.00 0.00 0.00 59 1014.0
20200404043322 46 314 0.0 1.0 0.00 0.00 0.00 67 1014.2
20200404043222 46 314 0.0 1.0 0.00 0.00 0.00 65 1014.0
20200404041837 48 314 0.0 0.0 0.00 0.00 0.00 64 1014.1
20200404041633 48 314 0.0 1.0 0.00 0.00 0.00 62 1013.9
20200404040337 48 314 0.0 2.0 0.00 0.00 0.00 60 1013.9
20200404040030 47 314 1.0 2.0 0.00 0.00 0.00 61 1013.9
20200404034820 47 314 1.0 2.0 0.00 0.00 0.00 58 1014.0
20200404034540 47 314 1.0 2.0 0.00 0.00 0.00 57 1014.0
20200404033320 49 314 0.0 0.0 0.00 0.00 0.00 57 1014.0
20200404033122 48 314 0.0 1.0 0.00 0.00 0.00 56 1014.0
20200404031835 51 314 0.0 1.0 0.00 0.00 0.00 53 1014.0
20200404031606 51 319 0.0 1.0 0.00 0.00 0.00 52 1014.0
20200404030331 50 319 1.0 2.0 0.00 0.00 0.00 50 1013.7
20200404030116 49 317 1.0 2.0 0.00 0.00 0.00 54 1013.4
20200404024830 50 316 0.0 1.0 0.00 0.00 0.00 48 1013.5
20200404024547 50 316 0.0 0.0 0.00 0.00 0.00 48 1013.5
20200404023326 52 316 0.0 2.0 0.00 0.00 0.00 51 1013.3
20200404023044 51 316 0.0 2.0 0.00 0.00 0.00 51 1013.2
20200404021825 54 329 0.0 2.0 0.00 0.00 0.00 47 1013.1
20200404021534 54 329 0.0 2.0 0.00 0.00 0.00 47 1013.0
20200404020321 58 329 0.0 2.0 0.00 0.00 0.00 35 1012.8
20200404020042 58 329 0.0 2.0 0.00 0.00 0.00 35 1012.8
20200404014820 57 329 2.0 5.0 0.00 0.00 0.00 34 1012.6
20200404014603 56 325 2.0 5.0 0.00 0.00 0.00 37 1012.5
20200404013336 57 354 2.0 3.0 0.00 0.00 0.00 38 1012.4
20200404013057 57 354 1.0 3.0 0.00 0.00 0.00 34 1012.3
20200404011835 58 338 2.0 5.0 0.00 0.00 0.00 37 1012.3
20200404011552 58 354 2.0 5.0 0.00 0.00 0.00 37 1012.2
20200404010332 59 5 3.0 3.0 0.00 0.00 0.00 35 1012.1
20200404010037 59 10 2.0 3.0 0.00 0.00 0.00 36 1012.1
20200404004831 62 5 0.0 2.0 0.00 0.00 0.00 29 1011.9
20200404004551 62 5 0.0 3.0 0.00 0.00 0.00 28 1011.9
20200404003327 64 5 2.0 4.0 0.00 0.00 0.00 25 1011.7
20200404003035 62 291 0.0 4.0 0.00 0.00 0.00 26 1011.6
20200404001821 61 316 2.0 7.0 0.00 0.00 0.00 28 1011.4
20200404001603 60 346 2.0 7.0 0.00 0.00 0.00 31 1011.3
20200404000320 62 339 2.0 5.0 0.00 0.00 0.00 34 1011.2
20200404000041 62 339 2.0 5.0 0.00 0.00 0.00 36 1011.2
20200403234834 64 360 2.0 9.0 0.00 0.00 0.00 27 1011.2
20200403234740 64 10 3.0 9.0 0.00 0.00 0.00 26 1011.2
20200403233334 66 328 2.0 4.0 0.00 0.00 0.00 26 1011.1
20200403233037 66 349 2.0 4.0 0.00 0.00 0.00 26 1011.0
20200403231829 67 15 2.0 5.0 0.00 0.00 0.00 23 1010.9
20200403231556 67 23 1.0 5.0 0.00 0.00 0.00 24 1010.9
20200403230329 68 15 2.0 6.0 0.00 0.00 0.00 21 1010.8
20200403230108 68 353 2.0 6.0 0.00 0.00 0.00 22 1010.9
20200403224822 69 316 2.0 10.0 0.00 0.00 0.00 22 1010.7
20200403224601 68 331 5.0 10.0 0.00 0.00 0.00 22 1010.6
20200403223339 69 29 4.0 12.0 0.00 0.00 0.00 21 1010.5
20200403223106 69 343 5.0 12.0 0.00 0.00 0.00 21 1010.4